SCP
0 0 0 0 0 -0 -0 -0 -0 0 0 0 0 0 0 0 0 0 0 0 0 0 0 0 0 0 0 0 0 0 0 0 0 0 0 0 0 0 0 0 0 0 0
0 0 0 0 0 0 -0 -0 0 0 0 0 0 0 0 0 0 0 0 0 0 0 0 0 0 0 0 0 0 0 0 0 0 0 0 0 0 0 0 0 0 0 0
0 0 0 0 0 0 0 0 0 0 0 0 0 0 0 0 0 0 0 0 0 0 0 0 0 0 0 0 0 0 0 0 0 0 0 0 0 0 0 0 0 0 0
0 0 0 0 0 0 0 0 0 0 0 0 0 0 0 0 0 0 0 0 0 0 0 0 0 0 0 0 0 0 0 0 0 0 0 0 0 0 0 0 0 0 0
0 0 0 1 1 0 0 0 0 0 0 0 0 0 0 0 0 0 0 0 0 0 0 0 0 0 0 0 0 0 -0 0 0 0 0 0 0 0 0 0 0 0 0
0 0 1 1 1 0 0 0 0 0 0 0 0 0 0 0 0 0 0 0 0 0 0 0 0 0 0 0 0 0 -0 0 0 0 0 0 0 0 0 0 0 0 0
0 0 1 1 1 1 0 0 0 0 0 0 0 0 0 0 0 0 0 0 0 0 0 0 0 0 0 0 0 0 -0 -0 0 0 0 0 0 0 0 0 0 0 0
0 0 0 1 1 1 0 0 0 0 0 0 0 0 0 0 0 0 0 0 0 0 0 0 0 0 0 0 0 -0 -0 -0 0 0 0 0 0 0 0 0 0 0 0
0 0 0 0 0 0 0 0 0 0 0 0 0 0 0 0 0 0 0 0 0 0 0 0 0 0 0 0 0 0 0 -0 0 0 0 0 0 0 0 0 0 0 0
0 0 0 0 0 0 0 0 0 0 0 0 0 0 0 0 0 0 0 0 0 0 0 0 0 0 0 0 0 0 0 0 0 0 0 0 0 0 0 0 0 0 0
0 0 0 0 0 0 0 0 0 0 0 0 0 0 0 0 0 0 0 0 0 0 0 0 0 0 0 0 0 0 0 0 0 0 0 0 0 0 0 0 0 0 0
0 0 0 0 0 0 0 0 0 0 0 0 0 0 0 0 0 0 0 0 0 0 0 0 0 0 0 0 0 0 0 0 0 0 0 0 0 0 0 0 0 0 0
0 0 0 0 0 0 0 0 0 0 0 0 0 0 0 0 0 0 0 0 0 0 0 0 0 0 0 0 0 0 0 0 0 0 0 0 0 0 0 0 0 0 0
0 0 0 0 0 0 0 0 0 0 0 0 0 0 0 0 0 0 0 0 0 0 0 0 0 0 0 0 0 0 0 0 0 0 0 0 0 0 0 0 0 0 0
0 0 0 0 0 0 0 0 0 0 0 0 0 0 0 0 0 0 0 0 0 0 0 0 0 0 0 0 0 0 0 0 0 0 0 0 0 0 0 0 0 0 0
0 0 0 0 0 0 0 0 0 0 0 0 0 0 0 0 0 0 0 0 0 0 0 0 0 0 0 0 0 0 0 0 0 0 0 0 0 0 0 0 0 0 0
0 0 0 0 0 0 0 0 0 0 0 0 0 0 0 0 0 0 0 0 0 0 0 0 0 0 0 0 0 0 0 0 0 0 0 0 0 0 0 0 0 0 0
0 0 0 0 0 0 1 1 0 0 0 0 0 0 0 0 0 0 0 0 0 0 0 0 0 0 0 0 0 0 0 0 0 0 0 0 0 0 0 0 0 0 0
0 0 0 0 0 0 1 1 1 1 1 1 0 0 0 0 0 0 0 0 0 0 0 0 0 0 0 0 0 0 0 0 0 0 0 0 0 0 0 0 0 0 0
0 0 0 0 0 0 0 1 1 1 1 1 1 1 1 1 0 0 0 0 0 0 0 0 0 0 0 0 0 0 0 0 0 0 0 0 0 0 0 0 0 0 0
0 0 0 0 0 0 0 0 1 1 1 1 1 1 1 1 1 1 1 0 0 0 0 0 0 0 0 0 0 0 0 0 0 0 0 0 0 0 0 0 0 0 0
0 0 0 0 0 0 0 0 0 1 1 1 1 1 1 1 1 1 1 1 1 0 0 0 0 0 0 0 0 0 0 0 0 0 0 0 0 0 0 0 0 0 0
0 0 0 0 0 0 0 0 0 0 0 1 1 1 1 1 1 1 1 1 1 1 0 0 0 0 0 0 0 0 0 0 0 0 0 0 0 0 0 0 0 0 0
0 0 0 0 0 0 0 0 0 0 0 0 0 1 1 1 1 1 1 1 1 1 1 0 0 0 0 0 0 0 0 0 0 0 0 0 0 0 0 0 0 0 0
0 0 0 0 0 0 0 0 0 0 0 0 0 0 0 1 1 1 1 1 1 1 1 1 0 0 0 0 0 0 0 0 0 0 0 0 0 0 0 0 0 0 0
0 0 0 0 0 0 0 0 0 0 0 0 0 0 0 0 1 1 1 1 1 1 1 1 1 0 0 0 0 0 0 0 0 0 0 0 0 0 0 0 0 0 0
Wind_Speed
9 13 16 14 13 12 11 11 11 11 11 13 14 13 12 11 9 9 8 8 9 11 13 14 15 15 15 15 14 14 14 13 14 15 15 14 12 12 11 12 10 8 11
14 14 15 14 13 12 12 11 11 11 12 13 14 13 12 10 9 9 8 9 11 13 15 15 15 15 14 14 13 13 12 11 11 12 12 11 10 11 11 12 12 7 11
15 14 13 13 12 12 12 12 12 12 13 14 13 12 11 10 9 9 10 12 13 14 15 15 15 14 14 13 12 11 9 7 6 4 4 5 7 10 10 9 9 9 9
15 13 12 13 12 12 13 13 13 13 13 13 13 12 11 9 9 9 12 14 14 15 15 14 14 13 13 12 11 9 6 4 4 4 2 6 6 9 9 8 8 8 8
13 11 14 13 12 12 13 14 14 13 14 13 12 11 10 10 10 11 13 14 14 14 14 13 12 12 11 11 9 7 4 4 6 4 6 7 6 9 10 9 9 9 9
12 13 13 13 12 13 13 13 13 13 14 13 12 11 10 10 11 12 12 12 13 12 12 12 11 11 10 9 8 5 3 5 7 2 7 7 5 9 11 10 11 12 13
13 14 12 13 13 12 12 12 12 13 14 13 12 11 10 11 11 11 10 11 11 11 11 11 10 9 8 7 6 4 4 7 2 5 6 6 6 11 12 13 14 15 15
14 13 11 13 12 11 10 10 10 12 13 13 12 11 10 11 10 10 9 9 10 10 10 10 9 8 7 6 5 4 5 7 4 6 6 6 7 10 13 15 16 16 16
13 13 9 9 9 10 9 8 8 10 12 13 12 11 10 10 10 9 9 9 9 9 9 9 8 7 7 6 5 3 4 6 4 3 6 5 8 11 13 15 15 15 15
9 11 9 8 8 7 6 7 7 8 11 12 11 10 10 9 9 8 7 7 8 9 9 8 8 7 7 6 4 2 4 6 2 3 4 6 10 12 13 14 13 13 13
4 8 9 9 8 8 8 9 7 7 9 11 10 11 10 6 6 6 7 7 7 8 9 9 8 8 6 5 3 1 3 3 2 5 5 9 11 13 13 12 12 12 12
2 2 4 7 7 7 7 7 5 6 6 6 6 8 5 5 6 8 10 9 7 7 8 8 9 7 5 3 3 2 2 3 3 5 5 11 12 12 11 11 11 11 11
4 2 1 2 4 5 5 6 4 4 5 6 7 9 6 5 4 6 5 5 5 6 5 6 5 4 4 3 3 3 1 1 3 5 6 11 11 11 10 10 10 10 10
8 6 3 1 2 2 4 4 4 4 4 5 6 9 6 3 4 5 5 5 5 4 5 5 4 6 5 4 4 3 2 1 3 4 5 10 10 10 10 9 9 9 9
9 9 8 5 4 3 2 2 3 4 5 5 5 6 7 5 4 4 4 6 6 6 5 5 5 5 5 5 4 3 4 3 5 6 4 9 10 10 10 9 9 9 9
8 10 10 9 8 6 4 3 3 3 4 5 5 6 7 5 5 5 4 5 5 5 6 5 6 4 4 4 4 4 3 3 4 7 6 6 9 10 10 10 9 9 9
5 8 10 11 10 9 8 7 4 3 3 3 4 6 7 6 6 5 5 5 5 5 6 5 6 4 4 4 4 4 4 4 4 7 8 5 5 7 10 11 10 9 9
2 3 6 8 10 10 9 8 6 5 4 3 3 5 8 8 7 6 5 5 5 5 4 5 4 4 4 4 4 4 3 3 4 5 6 7 5 5 6 10 11 10 9
2 2 3 4 6 7 8 7 7 6 6 5 4 4 6 8 8 6 5 5 5 4 4 5 4 4 4 4 4 4 4 4 3 4 5 7 7 7 5 8 10 10 10
3 3 3 2 3 4 4 4 5 6 6 6 6 6 6 6 8 7 6 7 6 5 5 5 5 4 4 5 4 3 3 4 4 4 5 5 6 8 8 7 5 6 10
3 4 4 4 3 2 2 3 4 5 6 6 7 8 8 8 7 7 6 7 7 7 8 7 6 6 5 4 3 1 2 2 4 4 4 5 6 7 8 9 6 5 5
5 5 5 4 4 4 2 2 2 3 4 6 7 9 10 10 9 7 8 6 7 7 8 9 7 6 5 6 5 4 3 3 5 5 5 6 7 6 7 9 8 8 6
5 5 5 5 5 5 4 3 2 2 2 3 4 6 10 11 11 10 9 8 7 7 8 9 9 10 7 6 6 6 6 7 4 4 7 6 6 6 6 6 8 8 8
4 3 4 5 5 4 4 3 4 3 4 5 4 5 7 10 11 12 11 11 9 7 8 9 10 8 8 7 5 5 4 5 5 3 3 5 6 7 8 7 7 7 7
4 3 4 5 5 4 4 4 4 4 4 4 4 5 6 6 9 11 12 11 11 9 9 9 9 9 8 8 7 4 5 2 3 5 4 4 4 5 6 7 6 6 7
4 3 4 5 5 4 5 5 4 5 5 6 6 6 5 4 5 8 10 11 11 10 10 10 9 10 9 9 7 6 5 4 5 4 4 3 4 4 4 4 6 6 6
Wind_Direction
126 133 140 138 140 139 137 133 129 129 130 129 121 112 105 97 88 80 73 80 87 91 94 92 88 84 81 80 78 77 77 81 84 84 80 74 73 71 59 48 75 64 65
128 133 137 136 139 139 137 129 123 121 122 120 114 109 103 96 89 83 80 90 95 94 93 92 89 86 83 82 81 80 82 89 95 97 95 82 73 69 64 58 62 66 65
124 132 136 132 134 135 135 129 124 123 121 118 113 109 104 98 94 91 88 93 97 94 93 92 90 87 85 83 82 80 81 86 86 86 112 103 82 70 67 63 62 61 60
125 137 135 129 132 134 134 132 131 128 123 119 114 111 106 103 102 100 92 91 92 95 95 94 92 89 86 84 83 80 75 52 14 346 80 89 77 70 68 65 62 58 56
129 132 126 130 130 133 135 135 134 131 125 121 117 115 112 109 108 103 95 93 95 97 98 98 95 90 86 84 83 80 54 2 346 343 79 80 72 67 66 66 64 62 61
127 118 127 126 128 131 135 137 137 134 130 126 124 121 119 114 107 103 99 100 101 103 103 102 98 93 88 85 83 73 23 348 327 54 75 77 70 70 72 71 72 70 72
121 121 129 127 129 131 135 137 140 139 137 134 132 129 126 119 114 111 110 111 111 110 109 106 101 95 90 86 82 62 1 339 323 75 81 76 71 76 76 79 80 76 73
117 123 126 126 127 129 132 136 142 145 142 140 139 136 131 127 124 125 124 123 121 118 113 107 102 96 91 86 80 51 354 338 9 78 89 86 82 83 87 87 83 78 74
120 125 133 133 128 125 128 133 142 148 147 146 144 138 132 130 134 137 136 135 130 123 117 113 107 100 94 89 82 48 342 334 342 67 89 91 95 96 96 92 85 81 77
121 132 145 150 150 147 141 140 144 149 152 150 145 138 135 137 143 147 150 147 139 134 130 126 120 113 106 100 90 32 323 325 314 92 88 104 103 103 101 95 90 85 81
113 138 154 158 158 161 161 154 149 154 158 153 147 147 146 157 159 166 166 148 150 146 146 142 138 132 127 125 131 262 301 282 87 78 89 111 110 108 104 98 94 91 87
161 149 157 156 157 162 156 146 164 169 163 169 161 162 180 192 177 172 150 153 160 160 159 159 157 158 162 167 191 226 263 256 106 101 111 118 117 113 109 105 101 98 95
191 211 224 136 145 152 135 154 171 171 168 189 180 175 197 207 170 144 147 153 164 167 171 165 171 199 208 172 180 206 259 14 96 112 121 125 126 123 120 115 112 109 104
177 187 213 196 154 163 153 166 171 172 170 185 195 182 191 199 175 161 165 169 178 184 184 173 198 209 201 164 192 188 159 237 114 115 128 133 136 136 134 130 126 122 116
169 176 187 192 196 201 200 197 188 184 174 185 195 190 188 188 181 185 183 176 184 184 186 183 206 197 184 184 195 181 177 190 138 129 131 139 143 147 148 146 143 137 129
174 177 181 187 193 193 201 213 220 211 185 187 185 193 200 190 181 193 200 188 189 185 179 183 201 192 178 173 181 191 193 182 151 140 141 141 151 156 160 160 157 151 144
195 182 180 185 190 192 197 205 214 221 220 206 191 191 201 204 189 191 206 200 193 189 181 181 198 188 174 168 181 192 191 189 169 147 151 149 151 162 169 170 167 162 155
244 206 188 185 188 193 195 198 203 207 217 224 216 201 202 207 203 195 202 209 194 189 187 185 190 177 169 166 180 194 185 180 184 165 157 157 158 162 175 175 173 171 166
276 274 223 194 193 199 199 198 197 196 205 216 225 226 215 209 208 202 200 203 194 193 194 190 186 173 172 179 189 185 183 179 196 182 166 164 164 163 161 173 171 172 173
346 335 324 275 213 213 213 209 200 197 200 207 218 226 231 226 215 209 204 202 194 192 197 191 185 185 179 177 182 177 192 186 193 192 185 172 165 164 162 161 158 172 178
8 357 336 322 304 261 223 222 216 209 206 206 212 218 225 232 232 222 213 206 200 200 199 191 180 189 190 156 131 162 266 229 209 199 194 181 176 172 164 168 170 169 181
29 14 351 341 329 315 282 249 235 233 222 214 211 213 216 222 226 230 226 220 209 206 202 198 189 183 184 165 148 140 207 254 254 218 197 194 187 179 178 176 177 173 175
43 17 354 345 331 321 320 317 309 297 280 249 229 218 215 216 219 222 228 228 222 213 211 206 199 190 192 191 176 164 173 204 211 227 215 200 190 184 186 180 182 177 174
64 24 349 333 320 316 320 310 290 271 260 252 245 234 223 214 213 214 218 223 227 224 219 214 209 200 183 192 212 222 203 161 161 199 237 213 197 191 188 190 186 179 170
64 25 342 325 320 330 331 316 299 283 275 278 278 265 250 231 217 212 212 216 222 225 225 221 214 208 201 194 194 200 224 235 177 151 197 211 211 207 192 186 180 175 168
54 20 344 328 331 339 336 325 307 293 292 296 292 284 275 262 240 222 215 214 217 220 222 222 219 215 210 205 200 194 186 194 203 184 172 178 202 215 194 178 176 171 165